Regional Weather Roundup
Issued by NWS

Home | Current Version | Previous Version | Graphics & Text | Print | Product List | Glossary On
Versions: 1 2 3 4 5 6 7 8 9 10 11 12 13 14 15 16 17 18 19 20 21 22 23 24 25 26 27 28
000
ASUS45 KTFX 271610
RWRMT
MONTANA REGIONAL WEATHER ROUNDUP
NATIONAL WEATHER SERVICE GREAT FALLS MT
1000 AM MDT TUE JUN 27 2017

NOTE: "FAIR" INDICATES FEW OR NO CLOUDS BELOW 12000 FEET WITH NO
SIGNIFICANT WEATHER AND/OR OBSTRUCTIONS TO VISIBILITY.

MTZ001>007-043-271700-
WEST OF THE DIVIDE

CITY           SKY/WX    TMP DP  RH WIND       PRES   REMARKS
KALISPELL      CLOUDY    67  61  81 S7        29.82S
MISSOULA       MOSUNNY   66  56  70 S5        29.89F
BUTTE          CLOUDY    59  48  67 NW8       29.98R
MULLAN PASS    MOSUNNY   55  44  66 VRB5      29.99S
ANACONDA         N/A     61  46  59 SW14      29.95S
DEER LODGE       N/A     59  52  77 N5        29.96S
EUREKA           N/A     72  52  49 CALM      29.80R
HAMILTON         N/A     64  54  68 S5        29.92S
$$

MTZ008-052>055-271700-
SOUTHWEST MONTANA

CITY           SKY/WX    TMP DP  RH WIND       PRES   REMARKS
BOZEMAN        CLOUDY    67  48  50 CALM      29.90S
DILLON         MOSUNNY   64  48  56 SW12      29.96S
W YELLOWSTONE  CLOUDY    57  41  54 S13G18    30.05S
ENNIS          SUNNY     66  45  45 S8G15     30.00F
THREE FORKS      N/A     66  53  63 CALM      29.89F
$$

MTZ009-010-012-014-046-048-049-054-271700-
EAST SLOPES AND CENTRAL MONTANA

CITY           SKY/WX    TMP DP  RH WIND       PRES   REMARKS
CUT BANK       PTSUNNY   62  51  67 N21       29.78S
GREAT FALLS    LGT RAIN  71  45  39 W25G31    29.76S
MALMSTROM AFB  PTSUNNY   72  49  44 W21G26    29.77R
HELENA         CLOUDY    65  50  58 W12G21    29.86F
CHOTEAU          N/A     68  54  60 SW7       29.80R
$$

MTZ011-013-016-021-045-047-050-051-271700-
NORTH CENTRAL MONTANA

CITY           SKY/WX    TMP DP  RH WIND       PRES   REMARKS
HAVRE          CLOUDY    74  50  42 W14       29.67R
LEWISTOWN      MOSUNNY   74  47  38 W14       29.78S
N BAR RANCH      N/A     72  45  37 W15G22    29.81S
CHINOOK          N/A     73  52  46 W12G20    29.64S
FORT BENTON      N/A    N/A N/A N/A MISG      29.72S
$$

MTZ017>020-022>027-061-062-271700-
NORTHEAST MONTANA

CITY           SKY/WX    TMP DP  RH WIND       PRES   REMARKS
GLASGOW        CLOUDY    74  44  34 W13       29.62R
JORDAN           N/A     81  47  30 NW17G24   29.65R
SIDNEY         SUNNY     78  47  33 S12       29.58F
WOLF POINT     CLOUDY    79  46  31 W10       29.59R
MALTA          MOSUNNY   75  50  41 W20G25    29.62R
PLENTYWOOD       N/A     75  46  35 SE7       29.57F
POPLAR           N/A     79  46  31 SW6       29.58R
$$

MTZ028>42-056>058-271700-
SOUTHCENTRAL AND SOUTHEAST MONTANA

CITY           SKY/WX    TMP DP  RH WIND       PRES   REMARKS
BAKER          SUNNY     80  48  32 S6        29.64F
BILLINGS       CLOUDY    74  52  46 W8        29.78R
LIVINGSTON     CLOUDY    64  46  52 W17G30    29.87F
MILES CITY     MOSUNNY   84  42  22 NW17      29.62F
BIG TIMBER     SUNNY     64  50  59 SW16G26   29.88S
ROUNDUP          N/A     79  43  27 SW21      29.69S
$$

REGIONAL REPORTS...DAKOTAS

CITY           SKY/WX    TMP DP  RH WIND       PRES   REMARKS
WILLISTON      MOSUNNY   76  46  34 S10       29.59F
MINOT          CLOUDY    67  45  45 S22G29    29.62F
DICKINSON      SUNNY     74  46  36 S15       29.64F
BEACH            N/A     75  46  35 SE10      29.66F
CROSBY           N/A     72  48  43 S13G18    29.60R
TIOGA            N/A     72  46  40 S23       29.61F
WATFORD CITY     N/A     72  48  43 S12G17    29.60F
BISMARCK       CLOUDY    73  52  47 S18G25    29.72F
GRAND FORKS    PTSUNNY   72  46  39 S21       29.82F
FARGO          CLOUDY    73  44  35 S21       29.88F
BUFFALO SD       N/A     78  54  43 S14       29.60F
RAPID CITY     SUNNY     77  57  50 S25G35    29.68F
$$

REGIONAL REPORTS...WYOMING/IDAHO/WASHINGTON

CITY           SKY/WX    TMP DP  RH WIND       PRES   REMARKS
GILLETTE       CLOUDY    78  47  33 NW9       29.77F
SHERIDAN       CLOUDY    72  50  45 E5        29.77S
BUFFALO WY     CLOUDY    75  39  27 W24G30    29.84R
CODY           CLOUDY    71  44  37 SW12G20   29.87F
YELLOWSTONE LA   N/A     55  40  56 CALM      30.12F
IDAHO FALLS    CLOUDY    69  53  56 NE6       29.98R
SALMON         CLOUDY    66  48  52 N5        29.95S
BOISE          SUNNY     74  49  41 NW12      29.94S
SPOKANE        PTSUNNY   65  53  65 SW10      29.89R
$$

REGIONAL REPORTS...ALBERTA

CITY           SKY/WX    TMP DP  RH WIND       PRES   REMARKS
EDMONTON       MOSUNNY   57  45  62 W17G32    29.68R
CALGARY        PTSUNNY   57  41  54 N5        29.77F
LETHBRIDGE     PTSUNNY   61  46  59 N9G17     29.79R
MEDICINE HAT   PTSUNNY   64  52  63 NW17      29.69R
WATERTON GATE    N/A     57  46  67 E12         N/A
MILK RIVER       N/A     61  54  77 N14         N/A
$$

REGIONAL REPORTS...SASKATCHEWAN

CITY           SKY/WX    TMP DP  RH WIND       PRES   REMARKS
SWIFT CURRENT  PTSUNNY   64  55  72 W22G31    29.57R
REGINA         PTSUNNY   73  52  46 S16       29.52F
SASKATOON      PTSUNNY   72  57  60 W13       29.43S
VAL MARIE        N/A     79  48  34 W16G22      N/A
ROCKGLEN         N/A     82  43  24 NW13G21     N/A
$$




USA.gov is the U.S. government's official web portal to all federal, state and local government web resources and services.